User: anonymous   Login
Location: Unspecified
(0.0000°N, 0.0000°E)
Time: 18:18:54
(UTC+00:00)
Language:

STARLINK-5340 - Orbit

View from above orbital plane
View from above orbital plane
View from above satellite
View from above satellite

Ground track
Ground track

The orbit is defined by the following mean orbital elements,

1 56506U          26145.35449424 +.00000000 +00000-0 +16103-3 0 00002
2 56506  43.0034 128.2954 0001623 274.6978  85.3689 15.27556197    01
Epoch (UTC): 25 May 2026 08:30:28
Eccentricity: 0.0001623
inclination: 43.0034°
perigee height: 482 km
apogee height: 484 km
right ascension of ascending node: 128.2954°
argument of perigee: 274.6978°
revolutions per day: 15.27556197
mean anomaly at epoch: 85.3689°

The dashed part of the orbit path shows where the satellite is in the earth's shadow,  

DLR